Location: Banios
(43.0451°N, 0.2335°E)
Time: 14:02:36
(UTC+00:00)

A-11 Canister half - Pass Details

Date: 08 May 2021
Orbit: 1513 x 1686 km, 47.2° (Epoch: 14 June)

Event Time Altitude Azimuth Distance (km) Brightness Sun altitude
Rises 15:15:03 0° 219° (SW) 4,665 12.1 40.7°
Reaches altitude 10° 15:18:11 10° 215° (SW) 3,674 11.7 40.2°
Maximum altitude 15:27:01 53° 142° (SE) 1,801 9.7 38.6°
Drops below altitude 10° 15:35:54 10° 69° (ENE) 3,697 10.6 37.0°
Sets 15:39:03 0° 65° (ENE) 4,696 11.1 36.5°
